User: anonymous   Login
Location: Unspecified
(0.0000°N, 0.0000°E)
Time: 01:30:47
(UTC+00:00)
Language:

NOAA 3 - Orbit

View from above orbital plane
View from above orbital plane
View from above satellite
View from above satellite

Ground track
Ground track

The orbit data is extracted from the following two-line orbital elements,

1  6920U 73086A   18174.52434043 -.00000060 +00000-0 -11648-3 0  9998
2  6920 101.9956 142.9807 0006962 101.6521 035.3222 12.40345981020400
Epoch (UTC): 23 June 2018 12:35:03
Eccentricity: 0.0006962
inclination: 101.9956°
perigee height: 1499 km
apogee height: 1510 km
right ascension of ascending node: 142.9807°
argument of perigee: 101.6521°
revolutions per day: 12.40345981
mean anomaly at epoch: 35.3222°
orbit number at epoch: 2040

The dashed part of the orbit path shows where the satellite is in the earth's shadow,  

DLR